TimeCDT,TemperatureF,Dew PointF,Humidity,Sea Level PressureIn,VisibilityMPH,Wind Direction,Wind SpeedMPH,Gust SpeedMPH,PrecipitationIn,Events,Conditions,WindDirDegrees,DateUTC
12:53 AM,36.0,30.9,82,30.18,10.0,Calm,Calm,-,N/A,,Clear,0,2014-03-31 05:53:00
1:53 AM,36.0,32.0,86,30.17,10.0,Calm,Calm,-,N/A,,Clear,0,2014-03-31 06:53:00
2:53 AM,35.1,32.0,89,30.16,10.0,Calm,Calm,-,N/A,,Clear,0,2014-03-31 07:53:00
3:53 AM,30.9,28.9,92,30.17,10.0,Calm,Calm,-,N/A,,Clear,0,2014-03-31 08:53:00
4:53 AM,34.0,30.9,89,30.17,10.0,Calm,Calm,-,N/A,,Clear,0,2014-03-31 09:53:00
5:53 AM,32.0,28.9,88,30.17,10.0,Calm,Calm,-,N/A,,Clear,0,2014-03-31 10:53:00
6:53 AM,30.0,28.0,92,30.19,7.0,Calm,Calm,-,N/A,,Clear,0,2014-03-31 11:53:00
7:53 AM,37.0,34.0,89,30.20,10.0,Calm,Calm,-,N/A,,Clear,0,2014-03-31 12:53:00
8:53 AM,45.0,36.0,71,30.21,10.0,East,3.5,-,N/A,,Clear,100,2014-03-31 13:53:00
9:53 AM,55.0,34.0,45,30.19,10.0,SE,6.9,-,N/A,,Clear,140,2014-03-31 14:53:00
10:53 AM,61.0,33.1,35,30.17,10.0,SSE,8.1,-,N/A,,Clear,160,2014-03-31 15:53:00
11:53 AM,63.0,26.1,25,30.16,10.0,Variable,4.6,-,N/A,,Clear,0,2014-03-31 16:53:00
12:53 PM,66.9,21.9,18,30.13,10.0,South,10.4,-,N/A,,Clear,190,2014-03-31 17:53:00
1:53 PM,69.1,19.0,15,30.11,10.0,SSW,9.2,-,N/A,,Clear,200,2014-03-31 18:53:00
2:53 PM,70.0,19.0,14,30.07,10.0,SSW,10.4,-,N/A,,Clear,210,2014-03-31 19:53:00
3:53 PM,71.1,21.9,16,30.04,10.0,South,9.2,-,N/A,,Clear,190,2014-03-31 20:53:00
4:53 PM,70.0,24.1,18,30.02,10.0,South,6.9,-,N/A,,Clear,170,2014-03-31 21:53:00
5:53 PM,70.0,21.0,16,30.02,10.0,South,8.1,-,N/A,,Clear,190,2014-03-31 22:53:00
6:53 PM,66.9,21.9,18,30.01,10.0,SE,3.5,-,N/A,,Clear,140,2014-03-31 23:53:00
7:53 PM,63.0,26.1,25,30.01,10.0,Calm,Calm,-,N/A,,Clear,0,2014-04-01 00:53:00
8:53 PM,64.0,24.1,22,30.01,10.0,SSE,4.6,-,N/A,,Clear,160,2014-04-01 01:53:00
9:53 PM,62.1,27.0,26,29.99,10.0,SSE,6.9,-,N/A,,Clear,160,2014-04-01 02:53:00
10:53 PM,64.9,28.0,25,29.96,10.0,South,17.3,-,0.00,Rain,Light Rain,170,2014-04-01 03:53:00
11:53 PM,64.0,28.9,27,29.98,10.0,SSW,5.8,-,0.00,,Mostly Cloudy,200,2014-04-01 04:53:00